EW3013 Weather Reports


time (UTC)temp
C
wind
direction
speed
KPH
gust
KPH
rain 1hr
cm
rain 24hr
cm
rain mn
cm
humidity
%
barometer
mb
20260504110143 7 144 3.2 4.8 0.00 0.00 0.00 62 1013.0
20260504100143 4 332 3.2 6.4 0.00 0.00 0.00 69 1013.3
20260504090122 5 138 0.0 1.6 0.00 0.00 0.00 67 1013.2
20260504081120 6 201 0.0 1.6 0.00 0.00 0.00 64 1013.1
20260504080142 6 308 0.0 1.6 0.00 0.00 0.00 64 1013.1
20260504070121 6 109 0.0 1.6 0.00 0.00 0.00 65 1013.1
20260504060142 6 190 0.0 1.6 0.00 0.00 0.00 65 1013.2
20260504050121 7 159 0.0 0.0 0.00 0.00 0.00 62 1013.3
20260504045121 7 101 0.0 0.0 0.00 0.00 0.00 62 1013.2
20260504044142 7 141 0.0 3.2 0.00 0.00 0.00 63 1013.2
20260504043121 7 140 0.0 1.6 0.00 0.00 0.00 62 1013.1
20260504042121 7 314 0.0 0.0 0.00 0.00 0.00 61 1013.1
20260504041121 7 304 0.0 3.2 0.00 0.00 0.00 61 1012.9
20260504040121 7 172 0.0 0.0 0.00 0.00 0.00 61 1012.8
20260504035121 7 156 0.0 0.0 0.00 0.00 0.00 60 1012.9
20260504034121 7 241 0.0 1.6 0.00 0.00 0.00 59 1012.7
20260504033121 8 326 0.0 1.6 0.00 0.00 0.00 58 1012.9
20260504032121 8 61 0.0 1.6 0.00 0.00 0.00 57 1012.8
20260504031121 8 128 0.0 0.0 0.00 0.00 0.00 55 1012.6
20260504030121 8 123 0.0 0.0 0.00 0.00 0.00 54 1012.6
20260504025121 8 152 0.0 1.6 0.00 0.00 0.00 53 1012.5
20260504024121 8 153 0.0 3.2 0.00 0.00 0.00 51 1012.5
20260504023121 9 28 0.0 1.6 0.00 0.00 0.00 50 1012.6
20260504022121 9 321 0.0 1.6 0.00 0.00 0.00 49 1012.7
20260504021121 9 171 0.0 3.2 0.00 0.00 0.00 50 1012.6
20260504020121 9 97 1.6 3.2 0.00 0.00 0.00 49 1012.6
20260504015121 9 153 0.0 3.2 0.00 0.00 0.00 48 1012.7
20260504014121 10 349 0.0 1.6 0.00 0.00 0.00 46 1012.4
20260504013121 10 143 0.0 3.2 0.00 0.00 0.00 48 1012.3
20260504012121 10 153 0.0 0.0 0.00 0.00 0.00 45 1012.3
20260504011121 11 161 0.0 3.2 0.00 0.00 0.00 45 1012.2
20260504010121 11 150 0.0 1.6 0.00 0.00 0.00 42 1012.0
20260504005142 11 43 0.0 0.0 0.00 0.00 0.00 40 1012.0
20260504004121 12 146 0.0 0.0 0.00 0.00 0.00 38 1011.9
20260504003121 12 266 0.0 3.2 0.00 0.00 0.00 37 1011.7
20260504002121 13 169 0.0 3.2 0.00 0.00 0.00 36 1011.6
20260504001121 13 211 1.6 9.7 0.00 0.00 0.00 36 1011.5
20260504000121 13 244 1.6 6.4 0.00 0.00 0.00 34 1011.4
20260503235142 13 264 1.6 4.8 0.00 0.00 0.00 33 1011.2
20260503234121 14 294 4.8 9.7 0.00 0.00 0.00 32 1011.1
20260503233142 14 268 3.2 8.0 0.00 0.00 0.00 32 1011.1
20260503232121 14 290 4.8 14.5 0.00 0.00 0.00 32 1011.1
20260503231121 15 291 4.8 11.3 0.00 0.00 0.00 32 1011.1
20260503230121 15 266 3.2 11.3 0.00 0.00 0.00 32 1011.0
20260503225121 15 281 4.8 14.5 0.00 0.00 0.00 31 1010.9
20260503224121 15 317 3.2 9.7 0.00 0.00 0.00 32 1011.0
20260503223121 15 312 4.8 9.7 0.00 0.00 0.00 30 1010.9
20260503222121 15 280 4.8 16.1 0.00 0.00 0.00 30 1011.0
20260503221121 15 280 6.4 16.1 0.00 0.00 0.00 30 1010.9
20260503220121 15 303 4.8 12.9 0.00 0.00 0.00 31 1010.9
20260503215121 15 286 4.8 16.1 0.00 0.00 0.00 30 1011.0
20260503214121 15 290 6.4 19.3 0.00 0.00 0.00 30 1010.9
20260503213121 15 321 6.4 16.1 0.00 0.00 0.00 30 1011.0
20260503212121 15 335 3.2 6.4 0.00 0.00 0.00 31 1011.0
20260503211121 14 285 6.4 14.5 0.00 0.00 0.00 29 1010.8
20260503210121 15 298 4.8 14.5 0.00 0.00 0.00 30 1011.0
20260503205121 14 287 4.8 14.5 0.00 0.00 0.00 31 1010.9
20260503204142 15 301 6.4 19.3 0.00 0.00 0.00 31 1011.0
20260503203122 15 306 6.4 14.5 0.00 0.00 0.00 32 1011.0
20260503202122 14 285 8.0 20.9 0.00 0.00 0.00 30 1011.0
20260503201122 14 309 9.7 17.7 0.00 0.00 0.00 31 1011.3
20260503200121 14 276 11.3 20.9 0.00 0.00 0.00 30 1011.3
20260503195121 14 313 9.7 17.7 0.00 0.00 0.00 31 1011.5
20260503194121 14 312 4.8 9.7 0.00 0.00 0.00 33 1011.5
20260503193143 13 292 6.4 12.9 0.00 0.00 0.00 32 1011.7
20260503192122 13 293 6.4 16.1 0.00 0.00 0.00 33 1011.8
20260503191122 14 295 6.4 17.7 0.00 0.00 0.00 32 1011.7
20260503190143 13 275 4.8 27.4 0.00 0.00 0.00 33 1011.9
20260503185122 13 290 8.0 17.7 0.00 0.00 0.00 34 1012.0
20260503184122 13 280 6.4 20.9 0.00 0.00 0.00 36 1011.9
20260503183122 13 299 6.4 19.3 0.00 0.00 0.00 34 1012.1
20260503182143 13 275 8.0 22.5 0.00 0.00 0.00 33 1012.1
20260503181143 13 282 6.4 17.7 0.00 0.00 0.00 33 1012.1
20260503180143 12 293 8.0 20.9 0.00 0.00 0.00 33 1012.2
20260503175122 12 305 8.0 19.3 0.00 0.00 0.00 35 1012.2
20260503174121 12 353 6.4 19.3 0.00 0.00 0.00 33 1012.2
20260503173122 12 289 8.0 14.5 0.00 0.00 0.00 34 1012.2
20260503172122 12 313 8.0 20.9 0.00 0.00 0.00 33 1012.6
20260503171122 12 305 6.4 17.7 0.00 0.00 0.00 34 1012.3
20260503170122 12 285 6.4 17.7 0.00 0.00 0.00 33 1012.5
20260503160141 11 6 6.4 19.3 0.00 0.00 0.00 36 1012.8
20260503150121 10 302 6.4 14.5 0.00 0.00 0.00 43 1013.1
20260503140121 8 349 3.2 6.4 0.00 0.00 0.00 53 1013.3
20260503131120 7 295 6.4 16.1 0.00 0.00 0.00 55 1013.2
20260503130120 7 320 3.2 14.5 0.00 0.00 0.00 54 1013.1
20260503120121 7 311 3.2 6.4 0.00 0.00 0.00 56 1012.7